Location: Hanover
(52.3667°N, 9.7167°E)
Time: 05:03:40
(UTC+02:00)

Envisat - Pass Details

Date: 20 September 2024
Orbit: 762 x 764 km, 98.3° (Epoch: 04 October)

Event Time Altitude Azimuth Distance (km) Brightness Sun altitude
Rises 06:15:04 0° 7° (N) 3,240 6.5 -8.3°
Reaches altitude 10° 06:17:50 10° 352° (N) 2,310 5.5 -7.9°
Maximum altitude 06:21:37 22° 304° (NW) 1,639 4.3 -7.3°
Drops below altitude 10° 06:25:24 10° 255° (WSW) 2,299 4.8 -6.7°
Enters shadow 06:26:02 - 251° (WSW) 2,493 5.0 -6.6°
